Abingdon, VA

4:58 PM EDT on June 24, 2017 (GMT -0400)
Virginia Highlands

Weather History for KVJI - March, 2014

Change the Weather History Date:

Friday, March 7, 2014

  Actual Average (KTRI) Record (KTRI)
Temperature  
Mean Temperature 44 °F -  
Max Temperature 55 °F 54 °F 79 °F (1956)
Min Temperature 33 °F 31 °F 14 °F (1960)
Degree Days  
Heating Degree Days 21    
Moisture  
Dew Point 33 °F    
Average Humidity 74    
Maximum Humidity 92    
Minimum Humidity 48    
Precipitation  
Precipitation 0.07 in - - ()
Sea Level Pressure  
Sea Level Pressure 29.99 in    
Wind  
Wind Speed 10 mph (East)    
Max Wind Speed 20 mph    
Max Gust Speed 23 mph    
Visibility 10 miles    
Events Rain , Snow    
Averages and records for this station are not official NWS values.
T = Trace of Precipitation, MM = Missing Value Source: NWS Daily Summary

Daily Weather History Graph

Daily Weather History Graph

Search for Another Location

Airport or City:

Trip Planner

Search our weather history database for the weather conditions in past years. The results will help you decide how hot, cold, wet, or windy it might be!

Date:

Astronomy

Mar. 07, 2014 Rise Set
Actual Time 6:50 AM EST 6:28 PM EST
Civil Twilight 6:24 AM EST 6:54 PM EST
Nautical Twilight 5:54 AM EST 7:24 PM EST
Astronomical Twilight 5:24 AM EST 7:54 PM EST
Moon 10:52 AM EST (3/7) 12:22 AM EST (3/7)
Length of Visible Light 12h 29m
Length of Day
11h 37m
Waxing Crescent, 42% of the Moon is Illuminated
Mar 7
Waxing Crescent
Mar 8
First Quarter
Mar 16
Full
Mar 23
Last Quarter
Mar 30
New

Hourly Weather History & Observations

Time (EST) Temp. Windchill Dew Point Humidity Pressure Visibility Wind Dir Wind Speed Gust Speed Precip Events Conditions
12:15 AM 36.9 °F 28.2 °F 28.6 °F 72% 30.04 in 10.0 mi East 13.8 mph 23.0 mph N/A   Overcast
12:35 AM 36.5 °F 28.2 °F 28.8 °F 74% 30.03 in 10.0 mi East 12.7 mph - N/A   Overcast
12:55 AM 36.0 °F 26.3 °F 28.8 °F 75% 30.03 in 10.0 mi East 16.1 mph 19.6 mph N/A   Overcast
1:15 AM 35.6 °F 25.9 °F 29.3 °F 78% 30.03 in 10.0 mi East 16.1 mph - N/A Rain Light Rain
1:35 AM 35.6 °F 27.1 °F 29.3 °F 78% 30.02 in 10.0 mi East 12.7 mph 20.7 mph N/A Snow Light Snow
1:55 AM 34.9 °F 26.6 °F 30.7 °F 85% 30.02 in 10.0 mi East 11.5 mph - N/A Rain Light Rain
2:15 AM 34.5 °F 25.3 °F 30.7 °F 86% 30.02 in 7.0 mi ESE 13.8 mph 19.6 mph N/A   Overcast
2:35 AM 34.0 °F 23.0 °F 30.2 °F 86% 30.01 in 7.0 mi East 18.4 mph 21.9 mph 0.02 in Snow Light Snow
2:55 AM 33.6 °F 22.2 °F 30.2 °F 87% 30.00 in 7.0 mi East 19.6 mph 23.0 mph 0.02 in Snow Light Snow
3:15 AM 33.4 °F 23.9 °F 30.6 °F 89% 30.00 in 10.0 mi East 13.8 mph 19.6 mph 0.01 in   Overcast
3:35 AM 33.8 °F 27.0 °F 30.7 °F 89% 29.99 in 10.0 mi East 8.1 mph - 0.01 in   Overcast
3:55 AM 33.8 °F 27.0 °F 30.4 °F 87% 29.99 in 10.0 mi East 8.1 mph - 0.01 in   Overcast
4:15 AM 33.8 °F 27.0 °F 30.4 °F 87% 30.00 in 10.0 mi East 8.1 mph - 0.01 in   Overcast
4:35 AM 34.0 °F 25.5 °F 30.2 °F 86% 30.00 in 10.0 mi East 11.5 mph - 0.01 in   Overcast
4:55 AM 33.8 °F 23.2 °F 29.8 °F 85% 30.01 in 10.0 mi East 17.3 mph - 0.01 in Snow Light Snow
5:15 AM 33.8 °F 24.8 °F 30.0 °F 86% 30.01 in 7.0 mi East 12.7 mph - 0.01 in Snow Light Snow
5:35 AM 33.8 °F 26.4 °F 30.7 °F 89% 30.00 in 7.0 mi East 9.2 mph - 0.02 in   Overcast
5:55 AM 33.8 °F 25.8 °F 31.1 °F 90% 30.01 in 10.0 mi East 10.4 mph - 0.02 in   Overcast
6:15 AM 33.4 °F 25.9 °F 31.1 °F 91% 30.00 in 7.0 mi East 9.2 mph - N/A Snow Light Snow
6:35 AM 33.4 °F 25.4 °F 31.3 °F 92% 30.00 in 10.0 mi East 10.4 mph - 0.01 in   Overcast
6:55 AM 33.6 °F 26.2 °F 31.1 °F 90% 30.01 in 10.0 mi East 9.2 mph - 0.01 in   Overcast
7:15 AM 33.6 °F 26.2 °F 30.7 °F 89% 30.01 in 10.0 mi ENE 9.2 mph - N/A   Overcast
7:35 AM 33.8 °F 27.0 °F 30.7 °F 89% 30.02 in 10.0 mi ENE 8.1 mph - N/A   Overcast
7:55 AM 34.0 °F 28.8 °F 30.7 °F 88% 30.02 in 10.0 mi East 5.8 mph - N/A   Overcast
8:15 AM 34.5 °F 30.4 °F 30.9 °F 87% 30.03 in 10.0 mi ENE 4.6 mph - N/A   Overcast
8:35 AM 34.7 °F 29.6 °F 31.1 °F 87% 30.03 in 10.0 mi ENE 5.8 mph - N/A   Overcast
8:55 AM 35.2 °F 28.1 °F 31.5 °F 86% 30.04 in 10.0 mi East 9.2 mph - N/A   Overcast
9:15 AM 35.8 °F 27.8 °F 31.8 °F 86% 30.03 in 10.0 mi East 11.5 mph - N/A   Overcast
9:35 AM 36.5 °F 28.7 °F 32.0 °F 84% 30.03 in 10.0 mi East 11.5 mph 16.1 mph N/A   Overcast
9:55 AM 37.9 °F 30.9 °F 32.4 °F 80% 30.03 in 10.0 mi ESE 10.4 mph - N/A   Overcast
10:15 AM 40.1 °F 32.7 °F 33.4 °F 77% 30.03 in 10.0 mi East 12.7 mph - N/A   Overcast
10:35 AM 41.5 °F 34.2 °F 34.2 °F 75% 30.03 in 10.0 mi East 13.8 mph - N/A   Overcast
10:55 AM 42.8 °F 35.8 °F 34.2 °F 72% 30.03 in 10.0 mi ESE 13.8 mph - N/A   Overcast
11:15 AM 43.3 °F 37.7 °F 34.5 °F 71% 30.03 in 10.0 mi ESE 10.4 mph - N/A   Overcast
11:35 AM 44.8 °F 39.0 °F 34.3 °F 67% 30.02 in 10.0 mi ESE 11.5 mph - N/A   Overcast
11:55 AM 46.8 °F - 35.4 °F 65% 30.02 in 10.0 mi East 10.4 mph - N/A   Scattered Clouds
12:15 PM 47.5 °F - 35.4 °F 63% 30.01 in 10.0 mi East 11.5 mph - N/A   Clear
12:35 PM 49.1 °F - 35.8 °F 60% 30.00 in 10.0 mi East 5.8 mph - N/A   Clear
12:55 PM 50.2 °F - 36.0 °F 58% 29.99 in 10.0 mi ENE 5.8 mph - N/A   Clear
1:15 PM 50.5 °F - 36.0 °F 57% 29.98 in 10.0 mi ENE 9.2 mph - N/A   Clear
1:35 PM 51.8 °F - 36.1 °F 55% 29.97 in 10.0 mi East 10.4 mph - N/A   Clear
2:00 PM 52.0 °F - 35.4 °F 53% 29.96 in 10.0 mi ESE 10.4 mph - N/A   Scattered Clouds
2:15 PM 52.9 °F - 35.8 °F 52% 29.96 in 10.0 mi ESE 6.9 mph - N/A   Clear
2:35 PM 53.6 °F - 35.4 °F 50% 29.95 in 10.0 mi East 5.8 mph - N/A   Clear
2:55 PM 53.6 °F - 35.4 °F 50% 29.95 in 10.0 mi SE 9.2 mph - N/A   Clear
3:15 PM 54.3 °F - 35.4 °F 49% 29.94 in 10.0 mi SSE 4.6 mph - N/A   Clear
3:35 PM 54.9 °F - 35.6 °F 48% 29.94 in 10.0 mi East 5.8 mph - N/A   Clear
3:55 PM 55.0 °F - 35.4 °F 48% 29.93 in 10.0 mi SE 6.9 mph - N/A   Clear
4:15 PM 54.5 °F - 35.2 °F 48% 29.93 in 10.0 mi East 4.6 mph - N/A   Clear
4:35 PM 54.7 °F - 35.1 °F 48% 29.93 in 10.0 mi SE 3.5 mph - N/A   Clear
4:55 PM 54.5 °F - 35.6 °F 49% 29.92 in 10.0 mi East 5.8 mph - N/A   Clear
5:15 PM 54.3 °F - 35.4 °F 49% 29.93 in 10.0 mi SSE 3.5 mph - N/A   Clear
5:35 PM 53.6 °F - 35.4 °F 50% 29.93 in 10.0 mi SE 3.5 mph - N/A   Clear
5:55 PM 53.2 °F - 35.4 °F 51% 29.94 in 10.0 mi Calm Calm - N/A   Clear
6:15 PM 52.5 °F - 35.6 °F 53% 29.94 in 10.0 mi ENE 3.5 mph - N/A   Clear
6:40 PM 50.7 °F - 35.6 °F 56% 29.95 in 10.0 mi Calm Calm - N/A   Clear
6:55 PM 48.7 °F - 35.6 °F 60% 29.95 in 10.0 mi Calm Calm - N/A   Clear
7:15 PM 46.6 °F - 35.6 °F 66% 29.95 in 10.0 mi Calm Calm - N/A   Clear
7:35 PM 44.1 °F - 35.6 °F 72% 29.96 in 10.0 mi Calm Calm - N/A   Clear
7:55 PM 44.4 °F - 35.8 °F 72% 29.97 in 10.0 mi Calm Calm - N/A   Clear
8:15 PM 42.8 °F - 35.1 °F 74% 29.97 in 10.0 mi Calm Calm - N/A   Clear
8:35 PM 41.5 °F - 35.6 °F 79% 29.98 in 10.0 mi Calm Calm - N/A   Clear
8:55 PM 41.0 °F - 35.1 °F 79% 29.98 in 10.0 mi Calm Calm - N/A   Clear
9:15 PM 40.1 °F - 34.5 °F 80% 29.99 in 10.0 mi Calm Calm - N/A   Clear
9:35 PM 40.1 °F - 34.7 °F 81% 29.99 in 10.0 mi Calm Calm - N/A   Clear
9:55 PM 40.3 °F - 35.4 °F 83% 29.99 in 10.0 mi Calm Calm - N/A   Clear
10:15 PM 38.7 °F - 34.7 °F 86% 30.00 in 7.0 mi Calm Calm - N/A   Clear
10:35 PM 38.7 °F - 34.3 °F 84% 29.99 in 10.0 mi Calm Calm - N/A   Clear
10:55 PM 38.3 °F - 34.3 °F 86% 29.98 in 10.0 mi Calm Calm - N/A   Clear
11:20 PM 37.8 °F - 34.0 °F 86% 29.99 in 10.0 mi Calm Calm - N/A   Clear
11:35 PM 36.7 °F - 33.3 °F 87% 29.99 in 10.0 mi Calm Calm - N/A   Clear
11:55 PM 36.0 °F - 32.9 °F 89% 30.00 in 10.0 mi Calm Calm - N/A   Clear